AA6MV Weather Reports


time (UTC)temp
C
wind
direction
speed
KPH
gust
KPH
rain 1hr
cm
rain 24hr
cm
rain mn
cm
humidity
%
barometer
mb
20260502223008 23 288 6.4 16.1 0.00 0.00 0.00 32 1006.6
20260502221506 23 283 1.6 11.3 0.00 0.00 0.00 32 1006.7
20260502220130 23 309 0.0 14.5 0.00 0.00 0.00 31 1006.8
20260502214516 23 215 6.4 22.5 0.00 0.00 0.00 33 1007.0
20260502213014 23 300 8.0 20.9 0.00 0.00 0.00 33 1007.4
20260502211510 23 209 9.7 24.1 0.00 0.00 0.00 33 1007.8
20260502204542 23 225 9.7 24.1 0.00 0.00 0.00 36 1008.1
20260502203039 22 204 9.7 20.9 0.00 0.00 0.00 39 1008.3
20260502201534 22 241 11.3 22.5 0.00 0.00 0.00 39 1008.5
20260502194548 21 240 11.3 25.7 0.00 0.00 0.00 41 1008.6
20260502193046 21 300 12.9 22.5 0.00 0.00 0.00 42 1008.7
20260502191555 21 303 14.5 25.7 0.00 0.00 0.00 42 1009.0
20260502184515 20 293 6.4 24.1 0.00 0.00 0.00 46 1009.6
20260502183005 20 246 11.3 24.1 0.00 0.00 0.00 47 1010.0
20260502181630 20 271 14.5 22.5 0.00 0.00 0.00 47 1010.2
20260502161510 17 231 9.7 22.5 0.00 0.00 0.00 55 1010.6
20260502151548 16 212 11.3 20.9 0.00 0.00 0.00 58 1010.1
20260502123155 13 229 11.3 20.9 0.00 0.03 0.00 67 1008.1
20260502121559 13 214 11.3 27.4 0.00 0.03 0.00 66 1008.1
20260502114558 13 209 8.0 22.5 0.00 0.03 0.00 68 1008.2
20260502114508 13 264 8.0 22.5 0.00 0.03 0.00 68 1008.2
20260502113156 13 229 9.7 19.3 0.00 0.03 0.00 67 1008.3
20260502111557 13 248 8.0 17.7 0.00 0.03 0.00 67 1008.2
20260502110157 13 234 9.7 20.9 0.00 0.03 0.00 67 1008.3
20260502104554 13 245 6.4 14.5 0.00 0.03 0.00 68 1008.5
20260502103155 13 240 4.8 12.9 0.00 0.03 0.00 68 1008.3
20260502101645 13 234 4.8 12.9 0.00 0.03 0.00 67 1008.2
20260502100122 13 246 0.0 0.0 0.00 0.03 0.00 67 1008.1
20260502091506 12 255 0.0 0.0 0.00 0.03 0.00 60 1008.0
20260502070026 13 260 0.0 0.0 0.00 2.08 0.00 61 1008.4
20260502064515 13 260 0.0 0.0 0.00 2.08 0.00 60 1008.2
20260502063008 15 258 0.0 0.0 0.00 2.08 0.00 58 1008.1
20260502061559 15 260 0.0 0.0 0.00 2.08 0.00 57 1008.1
20260502060059 15 260 0.0 0.0 0.00 2.08 0.00 57 1008.0
20260502054556 16 260 0.0 0.0 0.00 2.08 0.00 60 1008.0
20260502053056 16 259 0.0 0.0 0.00 2.08 0.00 61 1007.9
20260502051546 17 258 0.0 0.0 0.00 2.08 0.00 59 1007.8
20260502050044 17 269 0.0 0.0 0.00 2.11 0.00 58 1007.7
20260502044515 17 274 0.0 0.0 0.00 2.11 0.00 55 1007.7
20260502043113 17 260 0.0 0.0 0.00 2.11 0.00 56 1007.6
20260502041516 17 267 0.0 0.0 0.00 2.11 0.00 57 1007.5
20260502040109 17 257 0.0 0.0 0.00 2.18 0.00 58 1007.5
20260502034555 17 257 0.0 0.0 0.00 2.18 0.00 56 1007.1
20260502033050 17 257 0.0 0.0 0.00 2.18 0.00 56 1007.0
20260502031547 17 260 0.0 0.0 0.00 2.18 0.00 55 1006.8
20260502030049 17 261 0.0 0.0 0.00 2.26 0.00 55 1006.7
20260502024522 18 304 0.0 0.0 0.00 2.26 0.00 55 1006.5
20260502023029 18 15 0.0 0.0 0.00 2.26 0.00 53 1006.4
20260502021513 19 15 0.0 0.0 0.00 2.26 0.00 50 1006.2
20260502020011 20 15 0.0 0.0 0.00 2.26 2.26 45 1006.1
20260502014551 20 15 0.0 0.0 0.00 2.26 2.26 43 1006.0
20260502013100 20 15 0.0 0.0 0.00 2.26 2.26 40 1005.9
20260502011536 20 15 0.0 1.6 0.00 2.26 2.26 38 1006.0
20260502010036 21 8 0.0 4.8 0.00 2.26 2.26 36 1005.8
20260502004535 22 15 3.2 9.7 0.00 2.26 2.26 33 1005.8
20260502003035 22 7 1.6 11.3 0.00 2.26 2.26 33 1005.7
20260502001533 22 37 3.2 11.3 0.00 2.26 2.26 32 1005.7
20260502000032 22 55 3.2 11.3 0.00 2.26 2.26 31 1005.7
20260501234536 23 20 3.2 12.9 0.00 2.26 2.26 30 1005.6
20260501233028 23 30 1.6 6.4 0.00 2.26 2.26 28 1005.6
20260501231609 23 75 1.6 9.7 0.00 2.26 2.26 29 1005.7
20260501230057 23 100 0.0 9.7 0.00 2.26 2.26 29 1005.7